TimePDT,TemperatureF,Dew PointF,Humidity,Sea Level PressureIn,VisibilityMPH,Wind Direction,Wind SpeedMPH,Gust SpeedMPH,PrecipitationIn,Events,Conditions,WindDirDegrees,DateUTC
12:53 AM,48.0,44.1,86,30.17,10.0,Calm,Calm,-,N/A,,Clear,0,2012-04-16 07:53:00
1:53 AM,46.9,44.1,90,30.17,10.0,Calm,Calm,-,N/A,,Clear,0,2012-04-16 08:53:00
2:53 AM,46.0,43.0,89,30.16,10.0,Calm,Calm,-,N/A,,Clear,0,2012-04-16 09:53:00
3:35 AM,44.6,42.8,93,30.18,1.8,Calm,Calm,-,N/A,,Clear,0,2012-04-16 10:35:00
3:45 AM,44.6,42.8,93,30.18,3.0,Calm,Calm,-,N/A,,Clear,0,2012-04-16 10:45:00
3:50 AM,44.6,42.8,93,30.18,1.8,Calm,Calm,-,N/A,,Clear,0,2012-04-16 10:50:00
3:53 AM,45.0,43.0,93,30.17,1.5,Calm,Calm,-,N/A,,Clear,0,2012-04-16 10:53:00
4:53 AM,42.1,41.0,96,30.17,7.0,WNW,4.6,-,N/A,,Clear,290,2012-04-16 11:53:00
5:08 AM,42.8,41.0,93,30.19,2.0,WNW,4.6,-,N/A,,Partly Cloudy,300,2012-04-16 12:08:00
5:10 AM,42.8,41.0,93,30.19,1.0,WNW,4.6,-,N/A,,Mist,300,2012-04-16 12:10:00
5:17 AM,42.8,41.0,93,30.19,0.2,Calm,Calm,-,N/A,Fog,Fog,0,2012-04-16 12:17:00
5:28 AM,42.8,42.8,100,30.18,0.5,Calm,Calm,-,N/A,Fog,Fog,0,2012-04-16 12:28:00
5:38 AM,42.8,41.0,93,30.19,0.5,Calm,Calm,-,N/A,Fog,Fog,0,2012-04-16 12:38:00
5:46 AM,42.8,42.8,100,30.19,0.5,Calm,Calm,-,N/A,Fog,Fog,0,2012-04-16 12:46:00
5:53 AM,42.1,41.0,96,30.18,0.5,NW,3.5,-,N/A,Fog,Fog,320,2012-04-16 12:53:00
6:05 AM,42.8,41.0,93,30.19,1.0,Calm,Calm,-,N/A,,Mist,0,2012-04-16 13:05:00
6:13 AM,42.8,41.0,93,30.19,0.5,Calm,Calm,-,N/A,Fog,Fog,0,2012-04-16 13:13:00
6:28 AM,42.8,41.0,93,30.19,1.2,Calm,Calm,-,N/A,,Scattered Clouds,0,2012-04-16 13:28:00
6:31 AM,42.8,41.0,93,30.20,3.0,Calm,Calm,-,N/A,,Scattered Clouds,0,2012-04-16 13:31:00
6:38 AM,42.8,41.0,93,30.20,6.0,Calm,Calm,-,N/A,,Mostly Cloudy,0,2012-04-16 13:38:00
6:44 AM,42.8,41.0,93,30.19,2.5,Calm,Calm,-,N/A,,Scattered Clouds,0,2012-04-16 13:44:00
6:49 AM,42.8,41.0,93,30.19,1.2,Calm,Calm,-,N/A,,Mostly Cloudy,0,2012-04-16 13:49:00
6:53 AM,42.1,41.0,96,30.18,10.0,Calm,Calm,-,N/A,Fog,Patches of Fog,0,2012-04-16 13:53:00
7:00 AM,42.8,42.8,100,30.21,10.0,Calm,Calm,-,N/A,Fog,Patches of Fog,0,2012-04-16 14:00:00
7:11 AM,42.8,42.8,100,30.21,10.0,Calm,Calm,-,N/A,Fog,Patches of Fog,0,2012-04-16 14:11:00
7:53 AM,45.0,44.1,97,30.20,10.0,Calm,Calm,-,N/A,Fog,Mostly Cloudy,0,2012-04-16 14:53:00
8:11 AM,46.4,44.6,93,30.21,9.0,Calm,Calm,-,N/A,Fog,Mostly Cloudy,0,2012-04-16 15:11:00
8:25 AM,46.4,44.6,93,30.22,2.0,Calm,Calm,-,N/A,Fog,Mostly Cloudy,0,2012-04-16 15:25:00
8:53 AM,46.9,45.0,93,30.20,7.0,SE,3.5,-,N/A,Fog,Mostly Cloudy,130,2012-04-16 15:53:00
9:53 AM,50.0,46.9,89,30.21,10.0,South,3.5,-,N/A,,Mostly Cloudy,180,2012-04-16 16:53:00
10:53 AM,55.9,46.0,69,30.21,10.0,Calm,Calm,-,N/A,,Partly Cloudy,0,2012-04-16 17:53:00
11:53 AM,61.0,45.0,56,30.20,10.0,South,4.6,-,N/A,,Scattered Clouds,190,2012-04-16 18:53:00
12:53 PM,66.0,44.1,45,30.19,10.0,SSE,6.9,-,N/A,,Scattered Clouds,160,2012-04-16 19:53:00
1:53 PM,66.0,45.0,47,30.17,10.0,South,5.8,-,N/A,,Scattered Clouds,190,2012-04-16 20:53:00
2:53 PM,66.9,48.0,51,30.16,10.0,SSE,11.5,-,N/A,,Mostly Cloudy,160,2012-04-16 21:53:00
3:53 PM,64.0,46.9,54,30.16,10.0,SSW,6.9,-,N/A,,Mostly Cloudy,210,2012-04-16 22:53:00
4:53 PM,64.0,44.1,48,30.15,10.0,South,5.8,-,N/A,,Clear,190,2012-04-16 23:53:00
5:53 PM,61.0,46.0,58,30.15,10.0,SW,9.2,-,N/A,,Overcast,220,2012-04-17 00:53:00
6:53 PM,61.0,48.0,62,30.16,10.0,SSW,5.8,-,N/A,,Clear,200,2012-04-17 01:53:00
7:53 PM,57.0,48.9,74,30.16,10.0,South,3.5,-,N/A,,Clear,180,2012-04-17 02:53:00
8:53 PM,55.0,48.9,80,30.16,10.0,SSE,3.5,-,N/A,,Clear,160,2012-04-17 03:53:00
9:53 PM,54.0,48.9,83,30.17,10.0,Calm,Calm,-,N/A,,Clear,0,2012-04-17 04:53:00
10:53 PM,53.1,48.0,83,30.17,10.0,SSE,3.5,-,N/A,,Clear,150,2012-04-17 05:53:00
11:53 PM,51.1,48.0,89,30.16,10.0,Calm,Calm,-,N/A,,Clear,0,2012-04-17 06:53:00